Tracking 19846 objects as of 18-Sep-2019
HD Live streaming from Space Station
objects crossing your sky now

INTELSAT 602

Track INTELSAT 602 now!
INTELSAT 602 is classified as:


NORAD ID: 20315
Int'l Code: 1989-087A
Perigee: 36,145.3 km
Apogee: 36,157.4 km
Inclination: 12.9 °
Period: 1,454.4 minutes
Semi major axis: 42522 km
RCS: 19.9526 m2 (large)
Launch date: October 27, 1989
Source: International Telecommunications Satellite Organization (ITSO)
Launch site: FRENCH GUIANA (FRGUI)

Inclined orbit; Indian Ocean region; C-band and Ku-band broadcasting.
aabbcc
Your satellite tracking list
Your tracking list is empty




NASA's NSSDC Master Catalog

Two Line Element Set (TLE):
1 20315U 89087A   19260.58693580 -.00000225 +00000-0 +00000-0 0  9995
2 20315 012.9004 025.3225 0001425 173.5074 180.1388 00.99009611106918
Source of the keplerian elements: AFSPC